Погода Ванжиль-Кынак

Погода Ванжиль-Кынак : погода сейчас, прогноз погоды и архив. Всё, что Вы хотите узнать о погоде Ванжиль-Кынак!

Хотите узнать прогноз погоды Ванжиль-Кынак? Тогда Вам сюда: Погода Ванжиль-Кынак

Поиск расширенной информации на нашем сайте:

Другие новости

Новости СМИ2

Главная страница сайта

Новости сайта

03.07.2017

Напоминаем, что на нашем специализированном сайте Метеоцентр.Азия вы можете получить высокодетализированные автоматические прогнозы погоды по пунктам России, СНГ и мира в авиационном формате (включающие направление и скорость ветра, видимость, явления погоды, количество и форму облачности, нижнюю и верхнюю границу облачности).


Погода Ванжиль-Кынак - сегодня

Время (UTC), дата Ветер
(°,м/с) 
Видим.   Явления Облачность Т
(°С)
Тd
(°С)
f(%) Тe
(°С)
Pmin
(гПа)
dP
(гПа)
Po
(мм)
O2
(г/м3)
Тmin Tmax R s Состояние
почвы
18 20.02.18 тихо ()   20000 м    4/0 верхняя 
[Ci fib]
-21.5 -24 80 -22  1026.7  -0.2  760  334           
21 20.02.18 тихо ()   20000 м    ясно 
-24.9 -27.4 80 -25  1026.9  760  339           
00 21.02.18 тихо ()   4000 м  слаб. снег  10/0 средняя 
[As trans]
-25.9 -28.4 79 -26  1027.1  0.1  760  340  -26.4    0.0  67  равномерный
сухой снег
100% 
03 21.02.18 тихо ()   4000 м  слаб. снег  10/0 средняя 
[As trans]
-24 -26.5 80 -24  1027  760  337           
06 21.02.18 070 (В) 10 км  {снег}  ясно 
-15.8 -19.2 75 -16  1026.8  0.2  760  327           
09 21.02.18 080 (В) 10 км    1/0 верхняя 
[Ci fib]
-11.5 -16.8 65 -11  1026.9  0.2  760  321           
12 21.02.18 040 (СВ) 10 км    ясно 
-16.7 -19.3 80 -17  1027.3  0.2  760  328    -11.4  0.0     
15 21.02.18 тихо ()   20000 м    ясно 
-21.8 -24.3 80 -22  1027.5  760  335           
18 21.02.18 тихо ()   20000 м    ясно 
-22.7 -25.2 80 -23  1027  -0.6  760  336           
21 21.02.18 тихо ()   20000 м    ясно 
-23.2 -25.7 80 -23  1026.4  -0.5  759  336           
00 22.02.18 тихо ()   20000 м    ясно 
-23.8 -26.3 80 -24  1025.4  -1  759  337  -24      67  равномерный
сухой снег
100% 
03 22.02.18 090 (В) 10 км    10/0 верхняя 
[Ci sp]
-22.5 -25 80 -23  1024.2  -1.2  758  335           
06 22.02.18 090 (В) 10 км    10/0 верхняя 
[Cs]
-16.7 -20.1 75 -17  1022.3  -1.6  757  326           
09 22.02.18 090 (В) 10 км    10/0 средняя 
[Ac und]
-13.4 -19.5 60 -17  1020.1  -1.9  755  322           
12 22.02.18 070 (В) 10 км    10/0 верхняя 
[Cs]
-15.5 -19.7 70 -18  1018.6  -1.6  754  324    -13.2       
15 22.02.18 090 (В) 20000 м    10/0 верхняя 
[Cs]
-17.1 -20.5 75 -17  1017.8  -0.9  753  325           
18 22.02.18 тихо ()   4000 м  слаб. снег  10/0 средняя 
[As trans]
-17.1 -19.7 80 -17  1016.9  -0.9  753  325           
21 22.02.18 090 (В) 4000 м  слаб. снег  10/0 средняя 
[As trans]
-17.2 -19.8 80 -17  1016.7  -0.2  752  325           
00 23.02.18 090 (В) 4000 м  слаб. снег  10/0 средняя 
[As trans]
-18.6 -21.2 80 -19  1016.7  -0.1  752  327  -18.6    0.9  67  равномерный
сухой снег
100% 
06 23.02.18 150 (ЮВ) 4000 м  слаб. снег  10/0 средняя, верхняя 
[As trans|Cs]
-13.8 -18.1 70 -16  1015.4  -0.5  752  320           
09 23.02.18 тихо ()   4000 м  слаб. снег  10/0 средняя 
[As trans]
-10 -14.4 70 -10  1014.8  -0.4  751  316           
12 23.02.18 тихо ()   10 км  в посл. час ливневой снег  10/0 средняя, верхняя 
[Ac lent|Cs]
-15.6 -18.3 80 -16  1015.3  0.2  752  323    -10  0.6     
15 23.02.18 тихо ()   4000 м  слаб. снег  10/0 средняя 
[As op]
-18.5 -21.1 80 -19  1015.5  752  326           
18 23.02.18 тихо ()   4000 м  слаб. снег  10/0 средняя 
[As trans]
-21.8 -24.6 78 -22  1015.6  752  331           
21 23.02.18 тихо ()   4000 м  слаб. снег  10/0 средняя 
[As trans]
-22.6 -24.4 85 -23  1016  0.3  752  332           
Время (UTC), дата Ветер
(°,м/с) 
Видим.   Явления Облачность Т
(°С)
Тd
(°С)
f(%) Тe
(°С)
Pmin
(гПа)
dP
(гПа)
Po
(мм)
O2
(г/м3)
Тmin Tmax R s Состояние
почвы

Для получения пояснительной информации подведите курсор к названию столбца.

ПОГОДА Ванжиль-Кынак - архив

Всё, что Вы хотите узнать о погоде Ванжиль-Кынак - удобно и подробно!

Выберите нужную дату (начиная с 1 января 2015* года) и нажмите кнопку "Найти".
Будут отображены архивные сводки погоды по пункту Ванжиль-Кынак, начиная с указанной даты.


Отображать данные в формате CSV (для использования в таблицах Excel)


Внимание! Наш архив погоды предназначен исключительно для личного некоммерческого использования в познавательных целях. Если Вам необходимы официальные справки о состоянии погоды (для производственных, юридических, коммерческих и т.п. целей), обращайтесь в органы Росгидромета.

*Примечание: данная дата относится к архиву по метеостанциям СССР (Россия, СНГ, Балтия).
Архив по метеостанциям Зарубежной Европы и Азии (кроме Китая) хранится 10 дней, по другим регионам земного шара (Китай, Африка, Америка, Австралия, Океания) - 1 день.

Ванжиль-Кынак - район местоположения метеостанции


Название, широта, долгота, высота метеостанции:
Ванжиль-Кынак 60.3°ш. 84.1°д. 99 м над ур. моря [Российская Федерация]

Дополнительная информация

В oтличие oт бoльшинства пoгoдных сайтoв мы публикуем пoдрoбную метеoинфoрмацию в детальнoм прoфессиoнальнoм фoрмате.

Характеристики температуры и влажнoсти вoздуха измеряются на высoте 2 м в тени вдали oт зданий и деревьев.
Скoрoсть ветра измеряется на высoте 10 м (на урoвне рoста челoвека скoрoсть ветра ниже в 1.5-2 раза). Если метеoстанция нахoдится в гoрoде или в лесу, тo скoрoсть ветра занижена на 2-4 м/с пo сравнению с oткрытым местoм. Скoрoсть ветра над акватoриями крупных рек и oзёр, а также на вершинах хoлмoв на 2-5 м/с выше, чем в oбычных услoвиях.
Атмoсфернoе давление в разных тoчках местнoсти мoжет значительнo oтличаться oт давления на метеoстанции, в зависимoсти oт услoвий рельефа (при пoдъёме на 10 м давление пoнижается примернo на 1 мм рт.ст.).